This demonstration page uses our WeatherBlox Daily Observations layout. Learn more.

Left ArrowRight Arrow

Hourly Observations for June 11, 2017

Temp ( °F °C ) Dew Point ( °F °C ) Humidity (%) Winds ( mph kmh ) Pressure ( in mb ) Visibility ( mi km ) Precip ( " mm )
12:53 am 00:53 Partly Cloudy 52 11.1 35 1.7 53 53 SW 9 15 29.68 1005 10 16 0.00 0.00
1:53 am 01:53 Clear 47 8.3 33 0.6 59 59 SW 12 19 29.70 1006 10 16 0.00 0.00
2:53 am 02:53 Clear 46 7.8 33 0.6 61 61 SSW 12 19 29.72 1006 10 16 0.00 0.00
3:53 am 03:53 Clear 45 7.2 32 0 61 61 SW 13 20 29.72 1006 10 16 0.00 0.00
4:53 am 04:53 Clear 42 5.6 32 0 68 68 WSW 8 13 29.74 1007 10 16 0.00 0.00
5:53 am 05:53 Sunny 46 7.8 31 -0.6 56 56 SW 17 28 29.75 1007 10 16 0.00 0.00
6:53 am 06:53 Sunny 49 9.4 32 0 52 52 SW 18 30 29.77 1008 10 16 0.00 0.00
7:53 am 07:53 Sunny 54 12.2 33 0.6 45 45 SW 22 35 29.78 1008 10 16 0.00 0.00
8:53 am 08:53 Sunny 59 15 34 1.1 39 39 W 17 28 29.79 1009 10 16 0.00 0.00
9:53 am 09:53 Partly Cloudy 62 16.7 37 2.8 40 40 W 17 28 29.80 1009 10 16 0.00 0.00
10:53 am 10:53 Partly Cloudy 66 18.9 37 2.8 34 34 WSW 17 28 29.81 1010 10 16 0.00 0.00
11:53 am 11:53 Partly Cloudy 69 20.6 37 2.8 31 31 W 15 24 29.81 1009 10 16 0.00 0.00
12:53 pm 12:53 Sunny 71 21.7 34 1.1 26 26 WNW 10 17 29.80 1009 10 16 0.00 0.00
1:53 pm 13:53 Sunny 73 22.8 33 0.6 23 23 WNW 14 22 29.80 1009 10 16 0.00 0.00
2:53 pm 14:53 Sunny 74 23.3 33 0.6 22 22 VRB 5 7 29.80 1009 10 16 0.00 0.00
3:53 pm 15:53 Mostly Sunny 74 23.3 33 0.6 22 22 Calm 29.79 1009 10 16 0.00 0.00
4:53 pm 16:53 Sunny 76 24.4 35 1.7 23 23 W 14 22 29.79 1009 10 16 0.00 0.00
5:53 pm 17:53 Sunny 76 24.4 34 1.1 22 22 W 10 17 29.78 1009 10 16 0.00 0.00
6:53 pm 18:53 Sunny 74 23.3 35 1.7 24 24 WSW 6 9 29.78 1009 10 16 0.00 0.00
7:53 pm 19:53 Sunny 73 22.8 36 2.2 26 26 SW 8 13 29.78 1009 10 16 0.00 0.00
8:53 pm 20:53 Sunny 67 19.4 39 3.9 36 36 SSW 6 9 29.79 1009 10 16 0.00 0.00
9:53 pm 21:53 Clear 59 15 39 3.9 48 48 SSE 3 6 29.81 1009 10 16 0.00 0.00
10:53 pm 22:53 Clear 58 14.4 42 5.6 56 56 SE 5 7 29.82 1010 10 16 0.00 0.00
11:53 pm 23:53 Clear 52 11.1 40 4.4 64 64 SE 7 11 29.82 1010 10 16 0.00 0.00

Powered by AerisWeather